STARLINK-11529, 62599

Orbit data source: Space-Track

STARLINK-11529, 62599 is a payload satellite owned by SpaceX/Seattle (US) in LEO that was launched on Mon, 13 Jan 2025 UTC via an FALCON 9 launch vehicle from the Air Force Eastern Test Range (AFETR). Payloads include a variety of satellites, spacecraft, and rockets equipped with specific instruments for various scientific and technological missions. These include communications satellites like Starlink; space stations such as the ISS; scientific satellites like the Hubble; Earth observation satellites from companies like Planet Labs, Umbra, and HawkEye 360; GPS; miniature CubeSats for education and research; and military/defense satellites.

Loading next visibility...
STARLINK-11529 details
Identifier
62599, 2025-008N
Orbit
LEO
Last TLE update2 days ago
Origin
Flag of USSpaceX/Seattle (US)
ManufacturerSpaceX/Seattle
MissionOperational spacecraft
Bus & MotorSTARLINK V2M, Unknown motor
Mass730 kg wet, ~700 kg dry
Launch date (UTC)
2025-01-13 (3 weeks ago)
Launch vehicle
FALCON 9
Launch site
Air Force Eastern Test Range (AFETR)
Object type
Payload
Rocket body
Debris
Shape & HBRUnknown
Radar Cross SectionLarge (>1 m²)

Expand to show TLE details & history

TLE from 2 days ago
0 STARLINK-11529
1 62599U 25008N   25034.00100842  .00011756  00000-0  52150-4 0  9992
2 62599  43.0060  17.1539 0000585 312.1753  47.9070 15.84400092  4411
Epoch: 2025-02-03T00:01Z
Definitive object data (Epoch: 2025-02-03T00:01:27.127Z)
Latitude-0.00002°
Longitude-116.63607°
Altitude317.522 km
Speed7.72 km/s
True Right ascension01h 08m 36s
True Declination0° 00' 00"
Sunlit
Object was in daylight at TLE epoch
Visualization TLE readout
Latitude5.00115°
Longitude44.63857°
Altitude317.471 km
Speed7.72 km/s
Apparent Right ascension14h 25m 32s
Apparent Declination-23° 44' 32"
Sunlit
Object is in full shadow
Visualization observer readout
Local Sidereal Time06:13:01
Azimuth89.09° E
Elevation-39.942°
Doppler factor1
Orbital elements
Apogee altitude320.398 km
Perigee altitude319.615 km
Semi-major axis6,698.143 km
Eccentricity0.0000585
Inclination43.006°
RAAN17.1539°
Arg. of periapsis312.1753°
True anomaly47.91197°
Mean anomaly47.907°
Eccentric anomaly47.90949°
Mean motion3.95924 °/min
BSTAR0.00005215
Orbital period90.93 mins
Loading maneuver chart data...
Loading historical data...
Loading historical data...
Loading historical data...
Loading historical data...
Loading historical data...
Loading historical data...
Loading historical data...

STARLINK-11529 Visibility forecast

Observer location: undefined°, undefined

Span
Click to sort rows by Start time (UTC) header in descending order
Start Az.
Max El. time (UTC)
Max El. Az.
Max El.
End time (UTC)
End Az.
5 mins2025-02-05 05:22:13.617Z292.612° NW2025-02-05 05:24:13.617Z327.79° NNW36.878°2025-02-05 05:27:13.617Z93.741° ESE
|